Location: Boiro
(42.6475°N, 8.8834°W)
Time: 08:27:41
(UTC+02:00)

FALCONSAT-6 - Pass Details

Date: 09 July 2022
Orbit: 555 x 585 km, 97.6° (Epoch: 10 August)

Event Time Altitude Azimuth Distance (km) Brightness Sun altitude
Exits shadow 22:53:04 - 107° (ESE) 2,197 ? -6.6°
Reaches altitude 10° 22:54:15 10° 95° (E) 1,902 ? -6.7°
Maximum altitude 22:56:22 14° 64° (ENE) 1,662 ? -7.0°
Drops below altitude 10° 22:58:29 10° 32° (NNE) 1,903 ? -7.3°
Sets 23:01:32 0° 7° (N) 2,802 ? -7.8°
